Zurück zum Katalog

KUIPER-00480

AktivKommunikationLEO
NORAD 68876·PAYLOAD·🇺🇸 United States

Gestartet Apr 28, 2026 von Cape Canaveral Space Force Station

Loading…

Nächste Überflüge (nächste 24 Stunden)

TLE

AktuellSource: CelesTrak SupGP

Epoche: Sep 14, 2026, 21:52 UTC

1 68876C 26095N   26257.91118056  .00038083  00000+0  49834-2 0  2578
2 68876  51.9027 193.9178 0000853  93.6255 144.2072 14.79907981    11

Verfolge KUIPER-00480 in Echtzeit mit AllMySat

Download on the App Store